Regional Weather Roundup
Issued by NWS Charleston, WV

Home | Current Version | Previous Version | Text Only | Print | Product List | Glossary Off
Versions: 1 2 3 4 5 6 7 8 9 10 11 12 13 14 15 16 17 18 19 20 21 22 23 24 25 26 27 28 29 30 31 32 33 34 35 36 37 38 39 40 41 42 43 44 45 46 47 48 49 50

293
ASUS41 KRLX 121510
RWRRLX
West Virginia Regional Weather Roundup
National Weather Service Charleston WV
1000 AM EST TUE DEC 12 2017

Note: "fair" indicates few or no clouds below 12,000 feet with no
significant weather and/or obstructions to visibility.

WVZ003-121600-
Northern Panhandle of West Virginia

CITY           SKY/WX    TMP DP  RH WIND       PRES   REMARKS
WHEELING       CLOUDY    29  24  82 NW15G24   29.69R
$$

WVZ009-121600-
Northwest West Virginia

CITY           SKY/WX    TMP DP  RH WIND       PRES   REMARKS
PARKERSBURG    LGT SNOW  32  29  88 W10       29.79R FOG
$$

WVZ006-121600-
Western West Virginia

CITY           SKY/WX    TMP DP  RH WIND       PRES   REMARKS
HUNTINGTON     LGT SNOW  36  30  80 W12G20    29.82S
$$

WVZ015-121600-
West Central West Virginia

CITY           SKY/WX    TMP DP  RH WIND       PRES   REMARKS
CHARLESTON     LGT SNOW  35  31  85 NW9G20    29.78R FOG
$$

WVZ022-031-121600-
North Central West Virginia

CITY           SKY/WX    TMP DP  RH WIND       PRES   REMARKS
CLARKSBURG     LGT SNOW  35  28  75 W12       29.69R
MORGANTOWN     LGT SNOW  34  27  75 W10G17    29.67R
$$

WVZ025-035-042-045-121600-
Southern West Virginia

CITY           SKY/WX    TMP DP  RH WIND       PRES   REMARKS
BECKLEY        LGT SNOW  32  28  85 NW10      29.70R VSB 1
LOGAN          NOT AVBL
BLUEFIELD      CLOUDY    33  25  72 W20G33    29.70R
LEWISBURG      CLOUDY    36  28  72 W13G18    29.68R
$$

WVZ047-121600-
Northern Mountains of West Virginia

CITY           SKY/WX    TMP DP  RH WIND       PRES   REMARKS
ELKINS         LGT SNOW  34  27  75 W15G30    29.65R
$$

WVZ052-121600-
Eastern Panhandle of West Virginia

CITY           SKY/WX    TMP DP  RH WIND       PRES   REMARKS
MARTINSBURG    CLOUDY    45  28  51 W14G24    29.58S
PETERSBURG     CLOUDY    42  29  61 W10       29.62R
$$




USA.gov is the U.S. government's official web portal to all federal, state and local government web resources and services.